| time (UTC) | temp F | wind direction | speed MPH | gust MPH | rain 1hr in | rain 24hr in | rain mn in | humidity % | barometer mb |
| 20260510120043 | 56 | 146 | 0.0 | 0.0 | 0.00 | 0.00 | 0.00 | 87 | 1027.9 |
| 20260510114544 | 57 | 146 | 0.0 | 0.0 | 0.00 | 0.00 | 0.00 | 87 | 1027.9 |
| 20260510113042 | 57 | 146 | 0.0 | 1.0 | 0.00 | 0.00 | 0.00 | 86 | 1027.8 |
| 20260510111540 | 58 | 146 | 0.0 | 0.0 | 0.00 | 0.00 | 0.00 | 86 | 1027.7 |
| 20260510110040 | 58 | 146 | 0.0 | 0.0 | 0.00 | 0.00 | 0.00 | 84 | 1027.7 |
| 20260510104539 | 59 | 146 | 0.0 | 0.0 | 0.00 | 0.00 | 0.00 | 84 | 1027.6 |
| 20260510103036 | 60 | 146 | 0.0 | 0.0 | 0.00 | 0.00 | 0.00 | 82 | 1027.5 |
| 20260510101536 | 60 | 146 | 0.0 | 0.0 | 0.00 | 0.00 | 0.00 | 81 | 1027.5 |
| 20260510100037 | 61 | 146 | 0.0 | 0.0 | 0.00 | 0.00 | 0.00 | 81 | 1027.3 |
| 20260510094540 | 61 | 146 | 0.0 | 0.0 | 0.00 | 0.00 | 0.00 | 80 | 1027.2 |
| 20260510093030 | 62 | 146 | 0.0 | 0.0 | 0.00 | 0.00 | 0.00 | 79 | 1027.1 |
| 20260510091527 | 63 | 146 | 0.0 | 2.0 | 0.00 | 0.00 | 0.00 | 77 | 1026.9 |
| 20260510090025 | 63 | 146 | 0.0 | 1.0 | 0.00 | 0.00 | 0.00 | 76 | 1026.7 |
| 20260510084522 | 64 | 146 | 1.0 | 3.0 | 0.00 | 0.00 | 0.00 | 75 | 1026.4 |
| 20260510083020 | 65 | 140 | 1.0 | 4.0 | 0.00 | 0.00 | 0.00 | 74 | 1026.3 |
| 20260510081532 | 65 | 146 | 3.0 | 8.0 | 0.00 | 0.00 | 0.00 | 74 | 1026.1 |
| 20260510080019 | 65 | 143 | 3.0 | 7.0 | 0.00 | 0.00 | 0.00 | 73 | 1025.9 |
| 20260510074516 | 66 | 149 | 4.0 | 11.0 | 0.00 | 0.00 | 0.00 | 73 | 1025.7 |
| 20260510073015 | 66 | 150 | 2.0 | 10.0 | 0.00 | 0.00 | 0.00 | 73 | 1025.6 |
| 20260510071514 | 67 | 164 | 2.0 | 10.0 | 0.00 | 0.00 | 0.00 | 71 | 1025.3 |
| 20260510070016 | 68 | 132 | 2.0 | 5.0 | 0.00 | 0.00 | 0.00 | 69 | 1025.1 |
| 20260510064516 | 69 | 103 | 3.0 | 9.0 | 0.00 | 0.00 | 0.00 | 67 | 1024.9 |
| 20260510063016 | 70 | 160 | 3.0 | 9.0 | 0.00 | 0.00 | 0.00 | 63 | 1024.8 |
| 20260510061521 | 70 | 125 | 2.0 | 8.0 | 0.00 | 0.00 | 0.00 | 63 | 1024.5 |
| 20260510060012 | 71 | 88 | 4.0 | 8.0 | 0.00 | 0.00 | 0.00 | 61 | 1024.4 |
| 20260510054511 | 71 | 135 | 2.0 | 9.0 | 0.00 | 0.00 | 0.00 | 59 | 1024.1 |
| 20260510053009 | 71 | 104 | 2.0 | 7.0 | 0.00 | 0.00 | 0.00 | 59 | 1024.0 |
| 20260510051517 | 70 | 98 | 2.0 | 8.0 | 0.00 | 0.00 | 0.00 | 60 | 1023.9 |
| 20260510050009 | 71 | 127 | 1.0 | 5.0 | 0.00 | 0.00 | 0.00 | 58 | 1023.8 |
| 20260510044510 | 72 | 90 | 3.0 | 8.0 | 0.00 | 0.00 | 0.00 | 56 | 1023.7 |
| 20260510043017 | 73 | 93 | 2.0 | 8.0 | 0.00 | 0.00 | 0.00 | 55 | 1023.6 |
| 20260510041506 | 74 | 113 | 3.0 | 8.0 | 0.00 | 0.00 | 0.00 | 52 | 1023.6 |
| 20260510040006 | 75 | 158 | 3.0 | 6.0 | 0.00 | 0.00 | 0.00 | 49 | 1023.6 |
| 20260510034505 | 74 | 112 | 2.0 | 4.0 | 0.00 | 0.00 | 0.00 | 50 | 1023.7 |
| 20260510033004 | 74 | 127 | 3.0 | 9.0 | 0.00 | 0.00 | 0.00 | 49 | 1023.7 |
| 20260510031503 | 74 | 110 | 1.0 | 7.0 | 0.00 | 0.00 | 0.00 | 52 | 1023.8 |
| 20260510030003 | 73 | 100 | 0.0 | 6.0 | 0.00 | 0.00 | 0.00 | 51 | 1023.9 |
| 20260510024612 | 73 | 159 | 1.0 | 6.0 | 0.00 | 0.00 | 0.00 | 53 | 1024.1 |
| 20260510023101 | 72 | 138 | 3.0 | 7.0 | 0.00 | 0.00 | 0.00 | 52 | 1024.3 |
| 20260510021556 | 72 | 168 | 1.0 | 6.0 | 0.00 | 0.00 | 0.00 | 54 | 1024.6 |
| 20260510020052 | 71 | 194 | 1.0 | 5.0 | 0.00 | 0.00 | 0.00 | 55 | 1024.8 |
| 20260510014608 | 70 | 207 | 2.0 | 6.0 | 0.00 | 0.00 | 0.00 | 58 | 1025.0 |
| 20260510013057 | 69 | 254 | 1.0 | 5.0 | 0.00 | 0.00 | 0.00 | 58 | 1025.2 |
| 20260510011539 | 68 | 236 | 0.0 | 3.0 | 0.00 | 0.00 | 0.00 | 60 | 1025.3 |
| 20260510010035 | 67 | 292 | 1.0 | 4.0 | 0.00 | 0.00 | 0.00 | 62 | 1025.5 |
| 20260510004529 | 65 | 308 | 2.0 | 4.0 | 0.00 | 0.00 | 0.00 | 64 | 1025.7 |
| 20260510003028 | 64 | 311 | 0.0 | 4.0 | 0.00 | 0.00 | 0.00 | 66 | 1025.8 |
| 20260510001522 | 63 | 260 | 2.0 | 4.0 | 0.00 | 0.00 | 0.00 | 67 | 1025.7 |
| 20260510000021 | 62 | 213 | 0.0 | 3.0 | 0.00 | 0.00 | 0.00 | 71 | 1025.6 |
| 20260509234515 | 60 | 213 | 1.0 | 4.0 | 0.00 | 0.00 | 0.00 | 72 | 1025.5 |
| 20260509233010 | 59 | 292 | 2.0 | 4.0 | 0.00 | 0.00 | 0.00 | 76 | 1025.4 |
| 20260509231507 | 57 | 284 | 0.0 | 3.0 | 0.00 | 0.00 | 0.00 | 81 | 1025.5 |
| 20260509230003 | 56 | 284 | 0.0 | 3.0 | 0.00 | 0.00 | 0.00 | 82 | 1025.6 |
| 20260509224558 | 54 | 351 | 2.0 | 3.0 | 0.00 | 0.00 | 0.00 | 86 | 1025.6 |
| 20260509223055 | 53 | 26 | 0.0 | 3.0 | 0.00 | 0.00 | 0.00 | 89 | 1025.5 |
| 20260509221550 | 52 | 26 | 1.0 | 3.0 | 0.00 | 0.00 | 0.00 | 91 | 1025.4 |
| 20260509220047 | 51 | 26 | 0.0 | 2.0 | 0.00 | 0.00 | 0.00 | 92 | 1025.3 |
| 20260509214543 | 50 | 30 | 2.0 | 4.0 | 0.00 | 0.00 | 0.00 | 93 | 1025.2 |
| 20260509213040 | 49 | 36 | 2.0 | 4.0 | 0.00 | 0.00 | 0.00 | 94 | 1025.1 |
| 20260509211537 | 47 | 106 | 0.0 | 0.0 | 0.00 | 0.00 | 0.00 | 93 | 1024.8 |
| 20260509210047 | 47 | 106 | 0.0 | 0.0 | 0.00 | 0.00 | 0.00 | 93 | 1024.7 |
| 20260509204532 | 48 | 106 | 0.0 | 1.0 | 0.00 | 0.00 | 0.00 | 92 | 1024.5 |
| 20260509203031 | 48 | 106 | 0.0 | 1.0 | 0.00 | 0.00 | 0.00 | 92 | 1024.2 |
| 20260509201529 | 48 | 113 | 0.0 | 1.0 | 0.00 | 0.00 | 0.00 | 92 | 1024.1 |
| 20260509200030 | 49 | 113 | 0.0 | 1.0 | 0.00 | 0.00 | 0.00 | 92 | 1023.9 |
| 20260509194526 | 49 | 113 | 0.0 | 3.0 | 0.00 | 0.00 | 0.00 | 93 | 1023.6 |
| 20260509193022 | 48 | 119 | 1.0 | 2.0 | 0.00 | 0.00 | 0.00 | 93 | 1023.4 |
| 20260509191521 | 48 | 120 | 1.0 | 3.0 | 0.00 | 0.00 | 0.00 | 93 | 1023.3 |
| 20260509190021 | 47 | 128 | 0.0 | 0.0 | 0.00 | 0.00 | 0.00 | 93 | 1023.1 |
| 20260509184524 | 47 | 128 | 0.0 | 0.0 | 0.00 | 0.00 | 0.00 | 92 | 1023.0 |
| 20260509183016 | 47 | 128 | 0.0 | 0.0 | 0.00 | 0.00 | 0.00 | 92 | 1023.0 |
| 20260509181514 | 47 | 128 | 0.0 | 0.0 | 0.00 | 0.00 | 0.00 | 91 | 1022.9 |
| 20260509180011 | 48 | 128 | 0.0 | 0.0 | 0.00 | 0.00 | 0.00 | 91 | 1022.8 |
| 20260509174510 | 48 | 128 | 0.0 | 0.0 | 0.00 | 0.00 | 0.00 | 91 | 1022.7 |
| 20260509173026 | 48 | 128 | 0.0 | 0.0 | 0.00 | 0.00 | 0.00 | 91 | 1022.6 |
| 20260509171521 | 48 | 128 | 0.0 | 0.0 | 0.00 | 0.00 | 0.00 | 91 | 1022.6 |
| 20260509170012 | 49 | 128 | 0.0 | 0.0 | 0.00 | 0.00 | 0.00 | 91 | 1022.6 |
| 20260509164504 | 49 | 128 | 0.0 | 0.0 | 0.00 | 0.00 | 0.00 | 90 | 1022.6 |
| 20260509163003 | 50 | 128 | 0.0 | 0.0 | 0.00 | 0.00 | 0.00 | 90 | 1022.5 |
| 20260509161503 | 50 | 128 | 0.0 | 1.0 | 0.00 | 0.00 | 0.00 | 91 | 1022.6 |
| 20260509160002 | 50 | 128 | 0.0 | 2.0 | 0.00 | 0.00 | 0.00 | 92 | 1022.6 |
| 20260509154600 | 49 | 128 | 0.0 | 0.0 | 0.00 | 0.00 | 0.00 | 90 | 1022.6 |
| 20260509153100 | 49 | 128 | 0.0 | 0.0 | 0.00 | 0.00 | 0.00 | 90 | 1022.7 |
| 20260509151617 | 50 | 128 | 0.0 | 0.0 | 0.00 | 0.00 | 0.00 | 90 | 1022.7 |
| 20260509150056 | 50 | 128 | 0.0 | 0.0 | 0.00 | 0.00 | 0.00 | 89 | 1022.7 |
| 20260509144555 | 50 | 128 | 0.0 | 0.0 | 0.00 | 0.00 | 0.00 | 89 | 1022.6 |
| 20260509143103 | 50 | 128 | 0.0 | 0.0 | 0.00 | 0.00 | 0.00 | 89 | 1022.6 |
| 20260509141553 | 50 | 128 | 0.0 | 0.0 | 0.00 | 0.00 | 0.00 | 89 | 1022.5 |
| 20260509140049 | 51 | 128 | 0.0 | 0.0 | 0.00 | 0.00 | 0.00 | 88 | 1022.6 |
| 20260509134548 | 51 | 128 | 0.0 | 0.0 | 0.00 | 0.00 | 0.00 | 88 | 1022.5 |
| 20260509133047 | 51 | 128 | 0.0 | 0.0 | 0.00 | 0.00 | 0.00 | 88 | 1022.5 |
| 20260509131558 | 51 | 128 | 0.0 | 0.0 | 0.00 | 0.00 | 0.00 | 87 | 1022.5 |
| 20260509130117 | 51 | 128 | 0.0 | 0.0 | 0.00 | 0.00 | 0.00 | 87 | 1022.6 |
| 20260509124546 | 52 | 128 | 0.0 | 0.0 | 0.00 | 0.00 | 0.00 | 86 | 1022.5 |
| 20260509123116 | 52 | 128 | 0.0 | 0.0 | 0.00 | 0.00 | 0.00 | 86 | 1022.6 |
| 20260509121548 | 52 | 128 | 0.0 | 0.0 | 0.00 | 0.00 | 0.00 | 85 | 1022.6 |